Location: Newark
(50.4348°N, 30.5552°E)
Time: 02:51:11
(UTC+00:00)

Vanguard 1 Rocket - All Passes

Search period start: 29 January 2020 00:00
Search period end: 08 February 2020 00:00
Orbit: 651 x 4226 km, 34.3° (Epoch: 28 January)

Date Brightness Start Highest point End Pass type
(mag) Time Alt. Az. Time Alt. Az. Time Alt. Az.
29 Jan - 07:41:29 10° SW 07:48:15 30° SSE 07:59:35 10° ESE daylight
29 Jan - 10:04:22 10° WSW 10:13:49 36° S 10:30:09 10° SE daylight
29 Jan - 12:29:54 10° WSW 12:41:01 25° SSW 12:57:09 10° SSE daylight
30 Jan - 06:32:22 10° SSW 06:37:31 21° SSE 06:45:10 10° ESE daylight
30 Jan - 08:54:07 10° WSW 09:02:02 35° S 09:15:53 10° ESE daylight
30 Jan - 11:18:19 10° WSW 11:28:31 30° SSW 11:44:43 10° SSE daylight
30 Jan - 13:47:49 10° WSW 13:55:50 14° SW 14:05:34 10° SSW daylight
31 Jan - 05:24:43 10° SSE 05:27:12 12° SE 05:30:07 10° ESE daylight
31 Jan - 07:44:16 10° SW 07:50:46 30° SSE 08:01:38 10° ESE daylight
31 Jan - 10:07:27 10° WSW 10:16:21 32° S 10:31:19 10° SE daylight
31 Jan - 12:33:48 10° WSW 12:43:20 20° SSW 12:56:29 10° S daylight
01 Feb - 06:34:55 10° SSW 06:39:58 23° SSE 06:47:35 10° ESE daylight
01 Feb - 08:57:06 10° WSW 09:04:37 32° S 09:17:29 10° SE daylight
01 Feb - 11:21:46 10° WSW 11:30:59 25° SSW 11:44:58 10° SSE daylight
02 Feb - 05:26:30 10° S 05:29:34 14° SSE 05:33:23 10° ESE daylight
02 Feb - 07:47:09 10° SW 07:53:21 29° S 08:03:36 10° ESE daylight
02 Feb - 10:10:42 10° WSW 10:18:55 28° SSW 10:32:14 10° SE daylight
02 Feb - 12:38:37 10° WSW 12:45:43 15° SSW 12:54:42 10° S daylight
03 Feb - 06:37:36 10° SSW 06:42:31 23° SSE 06:49:55 10° ESE daylight
03 Feb - 09:00:13 10° WSW 09:07:15 29° S 09:18:55 10° SE daylight
03 Feb - 11:25:38 10° WSW 11:33:30 19° SSW 11:44:39 10° SSE daylight
04 Feb - 05:28:44 10° S 05:32:03 16° SSE 05:36:17 10° ESE daylight
04 Feb - 07:50:08 10° SW 07:56:01 27° S 08:05:28 10° SE daylight
04 Feb - 10:14:10 10° WSW 10:21:33 23° SSW 10:32:48 10° SSE daylight
05 Feb - 06:40:26 10° SW 06:45:09 23° SSE 06:52:09 10° ESE daylight
05 Feb - 09:03:29 10° WSW 09:09:57 24° S 09:20:07 10° SE daylight
05 Feb - 11:30:24 10° SW 11:36:04 14° SSW 11:43:17 10° S daylight
06 Feb - 05:31:14 10° SSW 05:34:37 17° SSE 05:38:59 10° ESE daylight
06 Feb - 07:53:16 10° SW 07:58:43 24° S 08:07:10 10° SE daylight
06 Feb - 10:18:05 10° WSW 10:24:13 18° SSW 10:32:49 10° SSE daylight
07 Feb - 06:43:24 10° SW 06:47:51 21° S 06:54:17 10° SE daylight
07 Feb - 09:06:59 10° SW 09:12:40 20° SSW 09:21:01 10° SSE daylight
